Weather History for Crystal River, FL

Change the Weather History Date:

Sunday, September 15, 2013

  Actual Average (KBKV) Record (KBKV)
Temperature  
Mean Temperature 83 °F -  
Max Temperature 95 °F 87 °F 93 °F (1997)
Min Temperature 71 °F 68 °F 63 °F (2005)
Cooling Degree Days 18    
Growing Degree Days 33 (Base 50)    
Moisture  
Dew Point 71 °F    
Average Humidity 77    
Maximum Humidity 100    
Minimum Humidity 44    
Precipitation  
Precipitation 0.02 in - - ()
Sea Level Pressure  
Sea Level Pressure 30.03 in    
Wind  
Wind Speed 3 mph (East)    
Max Wind Speed 15 mph    
Max Gust Speed 23 mph    
Visibility 10 miles    
Events Rain , Thunderstorm    
Averages and records for this station are not official NWS values.
T = Trace of Precipitation, MM = Missing Value Source: NWS Daily Summary

Daily Weather History Graph

Daily Weather History Graph

Search for Another Location

Airport:

Trip Planner

Search our weather history database for the weather conditions in past years. The results will help you decide how hot, cold, wet, or windy it might be!

Date:

Astronomy

Sep. 15, 2013 Rise Set
Actual Time 7:15 AM EDT 7:34 PM EDT
Civil Twilight 6:51 AM EDT 7:58 PM EDT
Nautical Twilight 6:23 AM EDT 8:26 PM EDT
Astronomical Twilight 5:55 AM EDT 8:54 PM EDT
Moon 4:47 PM EDT (9/15) 3:08 AM EDT (9/15)
Length of Visible Light 13h 07m
Length of Day
12h 19m
Waxing Gibbous, 82% of the Moon is Illuminated
Sep 15
Waxing Gibbous
Sep 19
Full
Sep 26
Last Quarter
Oct 4
New
Oct 11
First Quarter

Hourly Weather History & Observations

Time (EDT) Temp. Heat Index Dew Point Humidity Pressure Visibility Wind Dir Wind Speed Gust Speed Precip Events Conditions
12:15 AM 77.0 °F - 71.6 °F 83% 29.98 in 10.0 mi Calm Calm - N/A   Clear
12:35 AM 75.2 °F - 71.6 °F 89% 29.99 in 10.0 mi Calm Calm - N/A   Clear
12:55 AM 75.2 °F - 71.6 °F 89% 29.99 in 10.0 mi Calm Calm - N/A   Clear
1:15 AM 75.2 °F - 71.6 °F 89% 29.99 in 10.0 mi Calm Calm - N/A   Clear
1:35 AM 75.2 °F - 71.6 °F 89% 29.99 in 10.0 mi Calm Calm - N/A   Clear
1:55 AM 73.4 °F - 71.6 °F 94% 30.00 in 10.0 mi Calm Calm - N/A   Clear
2:15 AM 73.4 °F - 71.6 °F 94% 30.00 in 10.0 mi Calm Calm - N/A   Clear
2:35 AM 73.4 °F - 71.6 °F 94% 30.00 in 10.0 mi Calm Calm - N/A   Scattered Clouds
2:55 AM 73.4 °F - 71.6 °F 94% 29.99 in 10.0 mi Calm Calm - N/A   Scattered Clouds
3:15 AM 73.4 °F - 71.6 °F 94% 29.98 in 10.0 mi Calm Calm - N/A   Clear
3:35 AM 73.4 °F - 69.8 °F 88% 29.98 in 10.0 mi Calm Calm - N/A   Clear
3:55 AM 73.4 °F - 69.8 °F 88% 29.98 in 10.0 mi Calm Calm - N/A   Clear
4:15 AM 71.6 °F - 69.8 °F 94% 29.98 in 10.0 mi Calm Calm - N/A   Clear
4:35 AM 71.6 °F - 69.8 °F 94% 29.99 in 10.0 mi Calm Calm - N/A   Clear
4:55 AM 71.6 °F - 69.8 °F 94% 29.99 in 10.0 mi Calm Calm - N/A   Clear
5:15 AM 71.6 °F - 69.8 °F 94% 30.00 in 10.0 mi Calm Calm - N/A   Clear
5:35 AM 71.6 °F - 69.8 °F 94% 30.00 in 10.0 mi Calm Calm - N/A   Clear
5:55 AM 71.6 °F - 69.8 °F 94% 30.00 in 10.0 mi Calm Calm - N/A   Clear
6:15 AM 71.6 °F - 69.8 °F 94% 30.00 in 10.0 mi Calm Calm - N/A   Clear
6:35 AM 71.6 °F - 69.8 °F 94% 30.01 in 10.0 mi Calm Calm - N/A   Clear
6:55 AM 71.6 °F - 69.8 °F 94% 30.01 in 10.0 mi Calm Calm - N/A   Clear
7:15 AM 71.6 °F - 69.8 °F 94% 30.01 in 10.0 mi Calm Calm - N/A   Clear
7:35 AM 71.6 °F - 69.8 °F 94% 30.02 in 10.0 mi Calm Calm - N/A   Clear
7:55 AM 73.4 °F - 71.6 °F 94% 30.03 in 10.0 mi East 3.5 mph - N/A   Clear
8:15 AM 75.2 °F - 71.6 °F 89% 30.03 in 10.0 mi East 4.6 mph - N/A   Clear
8:35 AM 78.8 °F - 73.4 °F 83% 30.04 in 10.0 mi ENE 6.9 mph - N/A   Clear
8:55 AM 78.8 °F - 73.4 °F 83% 30.04 in 10.0 mi ENE 6.9 mph - N/A   Clear
9:15 AM 80.6 °F 85.4 °F 73.4 °F 79% 30.04 in 10.0 mi ENE 8.1 mph - N/A   Clear
9:35 AM 82.4 °F 88.2 °F 73.4 °F 74% 30.04 in 10.0 mi East 8.1 mph - N/A   Clear
9:55 AM 82.4 °F 88.2 °F 73.4 °F 74% 30.04 in 10.0 mi NE 8.1 mph - N/A   Clear
10:15 AM 86.0 °F 93.4 °F 73.4 °F 66% 30.04 in 10.0 mi NE 5.8 mph - N/A   Clear
10:35 AM 87.8 °F 93.8 °F 71.6 °F 58% 30.05 in 10.0 mi East 6.9 mph - N/A   Clear
10:55 AM 87.8 °F 92.6 °F 69.8 °F 55% 30.05 in 10.0 mi East 6.9 mph - N/A   Clear
11:15 AM 89.6 °F 96.2 °F 71.6 °F 55% 30.05 in 10.0 mi ENE 8.1 mph - N/A   Clear
11:35 AM 89.6 °F 94.7 °F 69.8 °F 52% 30.05 in 10.0 mi East 11.5 mph - N/A   Clear
11:55 AM 89.6 °F 94.7 °F 69.8 °F 52% 30.05 in 10.0 mi East 8.1 mph - N/A   Clear
12:15 PM 89.6 °F 94.7 °F 69.8 °F 52% 30.05 in 10.0 mi East 6.9 mph - N/A   Clear
12:35 PM 91.4 °F 96.8 °F 69.8 °F 49% 30.05 in 10.0 mi East 8.1 mph - N/A   Clear
12:55 PM 91.4 °F 96.8 °F 69.8 °F 49% 30.04 in 10.0 mi East 4.6 mph 17.3 mph N/A   Scattered Clouds
1:15 PM 91.4 °F 96.8 °F 69.8 °F 49% 30.04 in 10.0 mi East 9.2 mph 18.4 mph N/A   Mostly Cloudy
1:35 PM 91.4 °F 96.8 °F 69.8 °F 49% 30.04 in 10.0 mi SE 6.9 mph - N/A   Mostly Cloudy
1:55 PM 89.6 °F 94.7 °F 69.8 °F 52% 30.03 in 10.0 mi ESE 6.9 mph - N/A   Mostly Cloudy
2:15 PM 91.4 °F 96.8 °F 69.8 °F 49% 30.03 in 10.0 mi ESE 9.2 mph - N/A   Scattered Clouds
2:35 PM 91.4 °F 96.8 °F 69.8 °F 49% 30.01 in 10.0 mi East 3.5 mph - N/A   Clear
2:55 PM 91.4 °F 96.8 °F 69.8 °F 49% 30.01 in 10.0 mi ESE 9.2 mph - N/A   Scattered Clouds
3:15 PM 91.4 °F 95.4 °F 68.0 °F 46% 30.00 in 10.0 mi East 10.4 mph - N/A   Scattered Clouds
3:35 PM 95.0 °F 101.3 °F 69.8 °F 44% 29.99 in 10.0 mi ESE 8.1 mph - N/A   Scattered Clouds
3:55 PM 91.4 °F 96.8 °F 69.8 °F 49% 29.99 in 10.0 mi East 10.4 mph - N/A   Overcast
4:15 PM 87.8 °F 92.6 °F 69.8 °F 55% 29.98 in 10.0 mi East 15.0 mph 23.0 mph N/A Thunderstorm Mostly Cloudy
4:35 PM 87.8 °F 92.6 °F 69.8 °F 55% 29.99 in 10.0 mi East 9.2 mph 19.6 mph N/A Thunderstorm Thunderstorm
4:55 PM 87.8 °F 91.4 °F 68.0 °F 52% 29.99 in 10.0 mi East 12.7 mph 18.4 mph N/A Thunderstorm Thunderstorm
5:15 PM 86.0 °F 90.4 °F 69.8 °F 58% 30.00 in 10.0 mi ESE 8.1 mph - N/A Thunderstorm Mostly Cloudy
5:35 PM 84.2 °F 88.4 °F 69.8 °F 62% 30.03 in 10.0 mi ESE 8.1 mph - N/A Thunderstorm Thunderstorm
5:55 PM 82.4 °F 86.3 °F 69.8 °F 66% 30.04 in 10.0 mi East 6.9 mph - N/A Thunderstorm Mostly Cloudy
6:15 PM 82.4 °F 86.3 °F 69.8 °F 66% 30.05 in 10.0 mi Calm Calm - N/A Thunderstorm Overcast
6:35 PM 80.6 °F 83.9 °F 69.8 °F 70% 30.05 in 10.0 mi SSE 3.5 mph - N/A Thunderstorm Thunderstorm
6:55 PM 80.6 °F 84.6 °F 71.6 °F 74% 30.04 in 10.0 mi SSE 5.8 mph - N/A Rain , Thunderstorm Light Thunderstorms and Rain
7:15 PM 78.8 °F - 69.8 °F 74% 30.04 in 10.0 mi SE 8.1 mph - N/A Rain Light Rain
7:35 PM 77.0 °F - 69.8 °F 78% 30.04 in 10.0 mi Calm Calm - 0.01 in Rain Light Rain
7:55 PM 77.0 °F - 71.6 °F 83% 30.06 in 10.0 mi North 6.9 mph - 0.02 in Rain Light Rain
8:15 PM 77.0 °F - 71.6 °F 83% 30.06 in 10.0 mi Calm Calm - N/A   Scattered Clouds
8:35 PM 75.2 °F - 71.6 °F 89% 30.07 in 10.0 mi Calm Calm - N/A   Scattered Clouds
8:55 PM 75.2 °F - 73.4 °F 94% 30.07 in 10.0 mi Calm Calm - N/A   Scattered Clouds
9:15 PM 75.2 °F - 73.4 °F 94% 30.08 in 10.0 mi Calm Calm - N/A   Clear
9:35 PM 73.4 °F - 71.6 °F 94% 30.08 in 10.0 mi Calm Calm - N/A   Clear
9:55 PM 73.4 °F - 71.6 °F 94% 30.09 in 10.0 mi Calm Calm - N/A   Clear
10:15 PM 73.4 °F - 73.4 °F 100% 30.10 in 10.0 mi Calm Calm - N/A   Clear
10:35 PM 73.4 °F - 71.6 °F 94% 30.09 in 10.0 mi Calm Calm - N/A   Clear
10:55 PM 73.4 °F - 71.6 °F 94% 30.09 in 10.0 mi Calm Calm - N/A   Clear
11:15 PM 73.4 °F - 71.6 °F 94% 30.09 in 10.0 mi Calm Calm - N/A   Clear
11:35 PM 73.4 °F - 71.6 °F 94% 30.08 in 10.0 mi Calm Calm - N/A   Clear
11:55 PM 73.4 °F - 71.6 °F 94% 30.09 in 10.0 mi Calm Calm - N/A   Clear